Lapse_Rate
5.4 5.7 5.7 5.7 5.8 5.8 5.6 5.6 5.6 5.7 5.8 5.9 6.1 6.2 6.1 6.0 5.9 5.9 5.8 5.9 6.0 6.0 5.9 6.0 6.0 6.0 6.0 6.0 6.1 6.2 6.4 6.5 6.7 6.7 6.9 7.0 7.0 6.9 6.7 6.7 6.7 6.6 6.5
5.6 5.7 5.7 5.7 5.9 5.8 5.7 5.8 5.7 5.8 5.9 6.0 6.2 6.3 6.2 6.1 6.1 6.0 6.1 6.3 6.2 6.2 6.2 6.2 6.2 6.2 6.2 6.1 6.1 6.2 6.3 6.5 6.6 6.8 6.8 6.8 6.8 6.9 6.7 6.6 6.5 6.6 6.5
5.5 5.7 5.7 5.8 5.8 5.8 5.8 5.9 5.8 6.0 6.1 6.3 6.4 6.4 6.4 6.4 6.3 6.3 6.2 6.1 6.1 6.2 6.4 6.4 6.2 6.2 6.3 6.3 6.4 6.3 6.0 6.1 6.5 6.6 6.7 6.7 6.8 6.8 6.7 6.7 6.7 6.5 6.3
5.6 5.8 5.9 5.9 5.8 5.9 5.9 6.0 6.0 6.1 6.3 6.3 6.6 6.7 6.6 6.5 6.3 6.2 6.2 6.2 6.3 6.2 6.3 6.3 6.4 6.3 6.3 6.2 6.3 6.3 6.4 6.1 6.4 6.6 6.6 6.7 6.6 6.7 6.5 6.6 6.4 6.3 6.2
5.7 5.8 5.9 5.8 5.8 5.9 6.1 6.1 6.2 6.3 6.5 6.5 6.6 6.7 6.5 6.4 6.2 6.3 6.3 6.1 6.1 6.0 6.1 6.1 6.1 6.2 6.2 6.1 6.1 6.1 6.0 6.2 6.3 6.6 6.8 6.8 6.6 6.8 6.6 6.5 6.4 6.3 6.2
5.9 5.8 5.8 5.7 5.8 5.9 6.1 6.2 6.2 6.4 6.5 6.5 6.5 6.4 6.2 6.2 6.1 6.1 6.0 5.9 6.0 5.9 5.9 5.9 6.1 6.0 5.9 5.9 5.8 5.9 5.9 6.0 6.3 6.6 6.8 6.7 6.5 6.6 6.7 6.5 6.3 6.3 6.2
5.8 5.8 5.8 5.7 5.8 6.0 6.1 6.1 6.2 6.2 6.3 6.4 6.2 6.1 5.9 5.9 6.1 6.1 6.1 6.0 5.8 5.7 5.7 5.7 5.9 5.9 5.9 5.9 5.8 5.9 6.0 6.2 6.3 6.5 6.6 6.8 6.5 6.6 6.6 6.4 6.3 6.3 6.2
5.8 5.7 5.7 5.8 5.8 5.9 6.0 6.0 6.0 6.0 6.0 5.9 5.8 5.7 5.9 6.1 6.1 5.9 5.9 6.0 5.8 5.8 5.6 5.5 5.8 5.9 5.9 5.9 5.9 6.0 6.2 6.4 6.5 6.6 6.6 6.6 6.6 6.6 6.5 6.4 6.3 6.3 6.3
5.9 5.7 5.7 5.7 5.7 5.8 5.8 5.8 5.7 5.8 5.9 5.7 5.6 5.8 5.8 5.8 5.7 5.7 5.7 5.7 5.7 5.6 5.6 5.6 5.7 5.6 5.9 5.9 6.0 6.2 6.3 6.4 6.5 6.6 6.6 6.5 6.5 6.5 6.4 6.4 6.5 6.4 6.4
5.9 5.8 5.8 5.7 5.6 5.6 5.6 5.6 5.7 5.7 5.6 5.6 5.7 5.6 5.7 5.6 5.4 5.5 5.4 5.5 5.5 5.4 5.5 5.5 5.5 5.9 5.9 5.9 5.8 6.1 6.3 6.4 6.6 6.6 6.7 6.6 6.6 6.4 6.4 6.5 6.5 6.4 6.3
5.9 5.9 5.8 5.6 5.6 5.6 5.6 5.6 5.7 5.6 5.5 5.6 5.5 5.6 5.8 5.6 5.4 5.3 5.2 5.4 5.4 5.2 5.3 5.3 5.5 5.5 5.5 5.6 5.8 6.1 6.3 6.4 6.4 6.4 6.7 6.7 6.7 6.6 6.6 6.6 6.6 6.6 6.5
5.9 6.0 5.6 5.6 5.5 5.5 5.6 5.5 5.5 5.4 5.5 5.5 5.5 5.6 5.8 5.7 5.4 5.3 5.1 5.1 5.2 5.2 5.0 5.1 5.3 5.5 5.4 5.4 5.8 5.9 5.9 6.0 6.2 6.3 6.5 6.5 6.6 6.5 6.6 6.7 6.7 6.6 6.4
5.9 6.0 5.9 5.7 5.5 5.5 5.6 5.4 5.5 5.4 5.5 5.5 5.5 5.6 5.8 5.7 5.5 5.3 4.9 5.0 4.9 4.9 4.8 4.7 4.9 5.1 4.9 5.0 5.1 5.1 5.6 5.9 6.0 5.8 6.2 6.3 6.4 6.4 6.5 6.6 6.4 6.3 6.4
5.9 6.0 5.9 5.6 5.6 5.5 5.5 5.4 5.5 5.6 5.6 5.7 5.6 5.7 5.8 5.7 5.5 5.3 5.1 4.8 4.9 4.8 5.0 4.8 4.6 4.9 5.0 5.0 4.9 5.4 5.5 5.7 5.4 5.9 6.0 6.3 6.3 6.5 6.4 6.4 6.3 6.3 6.3
6.0 6.1 5.9 5.7 5.6 5.5 5.5 5.5 5.6 5.6 5.7 5.7 5.5 5.7 5.9 5.7 5.6 5.3 5.1 5.0 4.9 4.9 4.8 4.9 4.9 4.9 5.0 5.0 5.0 5.3 5.4 5.6 5.7 5.9 6.0 6.1 6.3 6.2 6.2 6.3 6.3 6.3 6.2
6.1 6.1 6.0 5.7 5.5 5.5 5.5 5.6 5.6 5.6 5.6 5.7 5.6 5.7 6.0 5.9 5.7 5.5 5.4 5.3 5.0 4.8 4.6 4.5 4.9 4.7 4.6 4.6 4.9 5.3 5.3 5.4 5.7 5.8 6.0 6.2 6.3 6.2 6.3 6.2 6.3 6.2 6.2
6.0 6.1 6.0 5.7 5.6 5.5 5.6 5.7 5.7 5.7 5.5 5.6 5.7 5.7 5.8 5.8 5.6 5.5 5.6 5.6 5.4 5.0 4.9 4.9 4.8 4.9 4.4 4.3 4.8 5.1 5.3 5.4 5.8 5.8 5.8 5.9 6.0 6.0 6.2 6.2 6.2 6.1 6.0
5.9 6.0 6.0 5.7 5.6 5.6 5.6 5.6 5.7 5.6 5.5 5.5 5.6 5.7 5.8 5.8 5.8 5.9 5.6 5.6 5.5 5.3 5.1 5.0 4.4 4.2 4.1 4.3 4.1 4.2 5.1 5.3 5.7 5.9 6.0 6.0 6.0 6.1 6.0 6.0 5.9 5.9 5.9
5.8 5.9 5.9 5.8 5.6 5.5 5.6 5.5 5.7 5.6 5.6 5.4 5.5 5.5 5.6 5.7 5.8 5.9 5.7 5.6 5.7 5.1 4.5 4.0 4.1 4.3 4.3 4.3 4.2 4.5 4.8 5.1 5.4 5.9 6.0 6.0 6.1 6.0 6.1 6.1 5.9 5.8 5.7
5.8 5.7 5.6 5.6 5.5 5.5 5.7 5.7 5.8 5.7 5.6 5.3 5.3 5.5 5.6 5.5 5.5 5.7 5.9 5.7 5.5 5.2 5.0 4.1 4.3 4.3 4.3 4.4 4.5 4.4 4.3 5.0 5.3 5.7 6.2 6.0 6.0 6.1 5.9 5.9 5.9 6.0 5.9
5.7 5.7 5.7 5.7 5.6 5.6 5.8 5.9 5.9 5.8 5.6 5.4 5.5 5.6 5.5 5.4 5.4 5.4 5.6 5.5 5.5 5.1 4.9 4.6 4.3 4.2 4.2 4.3 4.5 4.1 4.6 5.0 5.4 5.3 6.0 5.9 6.0 6.0 6.0 6.1 6.2 6.2 6.2
5.9 5.8 5.7 5.7 5.7 5.7 5.7 5.6 5.8 5.7 5.6 5.4 5.5 5.5 5.6 5.5 5.4 5.4 5.4 5.4 5.3 5.1 5.0 4.7 4.6 4.3 3.9 4.5 5.0 4.3 4.6 4.6 4.4 4.4 4.8 5.7 5.9 6.0 6.1 6.1 6.0 6.2 6.2
6.1 5.9 5.8 5.7 5.8 5.8 5.6 5.5 5.6 5.7 5.8 5.4 5.5 5.5 5.5 5.5 5.4 5.4 5.4 5.3 5.3 5.4 5.3 5.0 4.8 4.4 4.0 4.3 4.4 4.6 4.3 4.6 4.2 5.2 5.5 5.6 5.8 6.0 6.1 6.1 6.1 6.1 6.1
6.4 6.1 5.8 5.7 5.7 5.8 5.6 5.6 5.8 6.0 5.8 5.5 5.4 5.4 5.4 5.4 5.5 5.4 5.3 5.4 5.3 5.2 5.2 5.0 5.2 4.8 4.4 4.2 4.7 4.7 4.4 4.3 4.4 4.6 5.3 5.6 5.8 5.9 5.9 6.1 6.0 5.9 6.1
6.2 6.1 5.8 5.7 5.5 5.6 5.8 5.7 5.8 5.6 5.5 5.5 5.4 5.5 5.5 5.4 5.4 5.4 5.3 5.2 5.3 5.2 5.2 5.2 5.2 5.1 4.9 4.2 4.2 4.9 4.9 4.7 4.7 4.5 4.8 4.8 5.7 5.8 5.9 6.0 6.0 6.1 6.3
6.0 5.9 5.8 5.8 5.6 5.7 5.8 5.7 5.8 5.7 5.6 5.8 5.7 5.5 5.5 5.4 5.5 5.5 5.5 5.4 5.5 5.5 5.2 5.2 5.3 5.4 5.3 5.1 5.2 4.9 4.5 4.3 4.4 4.4 4.5 5.1 5.2 5.7 6.1 6.2 6.3 6.6 6.6
Wind_Speed
14 19 17 17 17 16 16 15 15 14 13 14 14 14 13 11 11 10 10 11 11 12 12 10 11 11 11 12 11 12 11 12 15 15 15 13 16 14 14 9 13 18 15
18 20 17 18 17 16 15 14 14 13 13 12 12 11 10 10 10 11 12 10 9 12 11 11 10 11 11 11 11 11 11 11 14 14 15 15 14 14 12 14 18 16 17
18 21 19 18 18 16 15 15 13 13 12 12 11 10 10 10 9 11 11 9 9 11 10 10 10 11 11 11 11 11 11 10 9 10 10 10 16 13 15 16 16 16 16
21 22 21 17 17 16 15 15 14 13 13 11 11 11 10 9 8 11 10 8 8 10 10 11 11 11 12 13 12 11 11 11 9 6 15 9 16 13 15 14 15 15 16
19 20 21 16 17 16 15 14 13 13 13 12 11 10 11 10 9 11 9 8 9 9 10 11 11 10 10 10 12 13 12 10 4 5 14 9 14 14 14 14 14 12 15
18 20 21 17 17 15 15 15 13 13 13 12 11 12 12 11 10 11 11 10 10 10 9 9 10 10 10 10 10 11 10 5 5 8 13 13 13 14 13 13 15 15 15
18 22 21 17 16 17 15 14 13 13 13 13 13 12 14 12 14 12 11 10 10 10 9 9 9 8 8 10 10 10 10 1 9 10 17 11 13 13 12 13 14 14 14
18 21 21 16 16 16 15 14 14 14 13 11 11 12 13 14 14 14 11 10 9 9 9 9 8 10 10 11 11 12 9 4 7 13 15 10 11 12 12 12 13 13 13
20 19 19 18 16 14 15 13 13 13 13 12 11 13 12 14 13 12 10 10 9 9 9 9 9 11 12 14 15 12 9 2 9 12 12 13 10 11 11 10 12 12 10
15 17 16 17 17 15 15 13 13 12 13 12 12 12 13 13 12 11 11 8 9 9 10 8 9 8 12 14 14 14 11 9 11 8 12 13 10 10 10 10 10 11 11
14 14 18 16 15 12 15 13 12 12 12 12 11 9 13 11 12 11 13 8 8 9 10 8 8 7 13 14 14 11 11 9 8 7 15 7 9 11 10 10 9 10 10
17 16 13 15 15 14 14 13 12 13 13 11 10 8 6 7 7 12 11 9 8 8 9 8 7 6 14 16 11 12 9 8 7 7 14 6 10 10 10 9 9 8 8
18 13 14 12 13 13 12 12 12 10 10 10 7 7 7 7 10 9 10 9 10 6 11 11 10 7 5 7 6 11 9 7 8 9 12 7 9 8 9 8 8 7 6
18 16 15 14 12 11 12 11 10 9 10 10 9 6 6 8 6 5 6 6 6 4 5 3 6 5 3 2 9 8 7 6 7 10 11 7 8 7 7 7 7 7 7
18 17 15 14 11 11 10 9 9 9 9 9 8 6 4 4 4 6 6 5 4 6 7 5 6 5 4 3 7 5 8 7 5 6 13 7 6 5 7 6 5 7 6
17 17 16 14 14 13 10 8 8 8 7 7 7 6 4 4 5 7 6 6 5 3 5 6 5 4 4 7 6 6 6 8 6 2 11 11 6 5 3 4 4 4 3
16 16 16 15 16 12 10 11 9 9 9 8 7 6 4 4 5 2 5 5 5 4 4 6 4 3 5 6 6 5 7 6 8 5 5 7 13 10 5 4 3 3 2
16 16 16 14 15 13 11 11 10 9 8 7 7 7 5 4 4 6 5 5 6 5 4 4 3 4 3 5 4 4 5 7 6 4 5 3 2 13 10 6 4 4 4
17 17 16 15 15 14 11 11 9 9 7 7 7 6 7 5 3 3 5 5 5 1 5 5 5 2 4 5 7 4 4 5 4 7 5 2 4 2 3 11 6 5 5
18 16 16 14 14 13 9 8 9 8 9 8 7 6 6 6 5 5 4 5 5 4 4 4 3 2 5 4 3 5 3 4 4 4 5 4 5 3 2 2 6 12 9
19 18 17 16 14 11 10 10 9 9 8 6 7 6 8 7 7 5 4 6 7 4 2 4 5 5 4 1 1 5 4 5 5 3 2 1 7 3 2 2 5 2 10
20 19 18 17 15 13 10 9 8 8 7 7 8 8 9 10 8 7 3 4 4 5 4 3 4 5 5 7 4 3 5 6 4 3 3 2 1 2 3 4 1 3 3
22 21 19 18 17 15 12 9 7 7 4 6 6 7 9 11 10 7 6 4 5 6 6 7 6 6 7 5 5 3 2 2 5 5 5 4 2 3 2 3 3 2 3
23 21 20 19 18 16 15 12 13 11 10 8 7 7 7 12 11 10 8 6 4 4 1 3 5 4 4 6 5 3 4 7 2 6 4 4 4 5 5 5 4 6 4
23 22 20 19 17 16 16 13 12 12 10 8 8 8 7 8 11 11 10 8 6 7 4 6 5 6 4 3 5 5 3 3 1 4 3 5 4 4 4 6 4 4 5
22 22 21 21 19 18 17 19 15 14 12 10 10 9 8 8 8 11 11 10 8 6 6 5 6 7 5 3 4 4 5 5 5 3 2 3 3 1 3 4 5 7 6
Wind_Direction
147 144 147 143 139 134 131 130 123 121 114 117 122 124 124 120 115 111 106 98 97 93 81 84 88 92 96 98 94 100 104 107 108 104 105 107 100 98 94 98 132 97 93
139 141 145 141 135 132 129 127 124 124 124 122 123 123 122 119 115 112 103 103 95 86 80 82 87 97 102 102 108 101 108 109 112 116 114 100 94 95 84 71 72 91 90
141 138 148 136 133 132 129 127 126 122 123 125 123 118 118 115 115 111 112 111 100 94 93 95 91 91 95 102 102 101 91 89 108 116 136 110 95 99 95 88 90 91 88
144 146 138 133 134 132 130 127 124 126 122 122 120 122 120 123 122 117 119 118 98 101 98 98 95 95 96 106 100 99 90 86 105 187 99 105 96 97 96 92 94 98 97
146 141 125 137 134 130 127 125 125 121 121 120 117 115 115 120 127 111 112 111 105 95 98 89 94 97 100 98 99 106 95 94 144 181 100 72 99 102 101 112 114 97 82
140 138 133 137 138 131 128 125 124 120 120 112 116 108 112 109 106 103 102 101 102 106 102 99 103 102 95 97 103 100 93 112 204 94 98 84 84 107 102 97 95 99 97
145 136 140 144 138 130 131 126 121 120 119 117 117 120 115 115 112 105 100 100 105 106 112 114 107 102 98 109 118 95 96 23 90 92 86 100 98 103 99 99 104 105 100
140 146 135 141 132 128 130 121 119 119 117 117 117 113 112 102 89 95 100 103 106 109 110 112 109 102 96 103 109 111 116 151 101 62 67 97 97 101 99 102 106 104 103
145 138 143 145 136 129 129 124 120 115 113 111 107 101 102 102 98 95 91 90 99 109 113 112 101 92 102 110 113 108 102 66 101 106 131 108 104 103 102 104 110 100 106
147 147 141 146 146 145 142 131 126 118 116 116 119 120 115 109 110 114 124 97 99 106 113 110 92 94 100 118 116 120 140 192 94 107 90 89 101 102 106 106 100 97 97
156 161 156 152 146 144 135 133 133 128 126 131 134 124 169 126 131 130 78 103 98 105 114 114 109 108 115 114 117 143 196 87 116 96 92 111 133 114 112 112 105 110 106
164 166 159 148 147 158 149 154 148 149 156 145 139 147 131 118 95 102 103 101 98 109 109 118 122 196 198 135 129 185 97 107 95 113 93 113 113 111 111 115 115 110 106
166 165 158 152 159 163 137 163 163 163 146 143 143 168 124 151 158 148 132 147 135 172 144 157 173 191 39 99 94 81 105 141 128 99 98 88 104 117 117 119 116 116 115
167 166 164 159 166 171 162 178 161 154 159 159 149 165 150 186 155 144 119 120 156 123 122 133 113 87 116 57 73 84 91 102 109 109 114 100 98 118 117 127 122 116 106
169 170 168 162 169 167 179 170 163 155 177 143 167 160 193 157 130 158 133 131 121 160 126 126 107 84 89 137 120 101 90 78 103 109 118 126 122 102 101 112 126 127 113
172 175 168 171 172 177 186 172 165 180 151 176 164 149 190 212 155 138 149 141 139 147 129 120 73 97 87 125 119 101 84 103 72 142 120 137 142 123 119 111 109 105 132
178 177 172 178 175 183 183 178 191 172 171 168 152 155 154 194 159 149 148 177 135 112 147 147 124 121 108 111 100 123 108 99 108 97 107 130 148 162 163 165 170 181 198
182 183 180 186 178 183 184 183 191 172 174 170 157 158 164 172 200 211 158 166 137 179 134 151 165 166 118 119 113 140 103 104 103 108 89 59 42 148 160 180 201 222 244
186 184 188 189 181 182 181 190 196 167 195 171 171 171 160 179 187 167 177 119 192 88 147 142 162 168 131 128 134 134 119 112 159 102 92 114 94 325 84 152 178 222 238
184 186 191 190 185 187 181 198 200 179 187 190 194 190 175 195 197 221 152 137 165 184 184 126 110 103 56 1 124 107 114 124 125 122 122 141 112 160 182 288 198 188 196
187 188 193 194 186 188 191 193 195 196 185 195 213 200 192 199 192 198 203 176 215 175 178 168 156 164 126 327 310 141 127 167 171 167 163 130 118 172 103 165 257 283 169
189 192 194 196 192 196 194 202 200 204 191 196 190 181 190 189 188 196 217 188 182 125 182 170 199 164 151 174 235 210 165 168 196 195 163 215 138 161 164 192 248 228 282
193 194 196 197 195 198 202 195 190 194 210 197 184 188 187 187 189 200 196 247 157 189 191 178 200 219 154 179 274 285 212 167 148 166 188 221 167 220 233 211 239 205 228
197 195 198 198 198 197 197 192 196 197 199 199 192 190 177 193 191 190 198 204 194 221 170 178 200 186 250 161 186 241 346 1 277 163 185 195 215 220 203 232 190 197 210
197 197 197 197 199 199 194 212 197 219 204 197 201 177 219 183 202 201 201 204 193 227 195 178 186 230 181 195 209 180 192 175 333 315 126 151 195 218 220 213 254 247 198
198 198 196 194 197 199 197 203 207 206 221 205 202 196 206 204 193 208 206 210 205 205 212 204 211 193 231 234 236 231 201 208 183 214 250 201 325 182 250 233 229 241 239